Вернуться в каталог

OPS 4682 DEB

АктивенPO
NORAD 38434·DEBRIS·🇺🇸 United States

Запущен Apr 3, 1965 с Vandenberg Space Force Base

Loading…

Ближайшие Пролёты (ближайшие 24 часа)

TLE

СвежийSource: Space-Track

Эпоха: Sep 14, 2026, 06:27 UTC

1 38434U 65027EP  26257.26933229  .00000240  00000-0  80103-3 0  9991
2 38434  90.2488   7.9414 0027628 325.8227  34.1115 12.97452996674066

Отслеживайте OPS 4682 DEB в реальном времени с AllMySat

Download on the App Store